| time (UTC) | temp F | wind direction | speed knots | gust knots | rain 1hr in | rain 24hr in | rain mn in | humidity % | barometer mb |
| 20260906231022 | 64 | 113 | 1.7 | 4.3 | 0.00 | 0.01 | 0.01 | 83 | 1021.0 |
| 20260906230018 | 64 | 113 | 1.7 | 4.3 | 0.00 | 0.01 | 0.01 | 83 | 1021.2 |
| 20260906225031 | 63 | 0.0 | 0.0 | 0.00 | 0.01 | 0.01 | 86 | 1021.3 | |
| 20260906224026 | 62 | 0.0 | 0.0 | 0.00 | 0.01 | 0.01 | 89 | 1021.3 | |
| 20260906223021 | 61 | 0.0 | 0.0 | 0.00 | 0.01 | 0.01 | 94 | 1021.5 | |
| 20260906222033 | 60 | 0.0 | 0.0 | 0.00 | 0.01 | 0.01 | 95 | 1021.3 | |
| 20260906221028 | 60 | 0.0 | 0.0 | 0.00 | 0.01 | 0.01 | 97 | 1021.3 | |
| 20260906220029 | 60 | 0.0 | 0.0 | 0.00 | 0.01 | 0.01 | 98 | 1021.5 | |
| 20260906215024 | 60 | 0.0 | 0.0 | 0.01 | 0.01 | 0.01 | 99 | 1021.5 | |
| 20260906214019 | 60 | 0.0 | 0.0 | 0.01 | 0.01 | 0.01 | 99 | 1021.5 | |
| 20260906213052 | 59 | 0.0 | 0.0 | 0.01 | 0.01 | 0.01 | 99 | 1021.5 | |
| 20260906212027 | 59 | 0.0 | 0.0 | 0.01 | 0.01 | 0.01 | 99 | 1021.7 | |
| 20260906211022 | 59 | 0.0 | 0.0 | 0.01 | 0.01 | 0.01 | 99 | 1021.8 | |
| 20260906210016 | 58 | 113 | 1.7 | 2.6 | 0.01 | 0.01 | 0.01 | 99 | 1021.8 |
| 20260906205029 | 59 | 113 | 2.6 | 4.3 | 0.00 | 0.00 | 0.00 | 99 | 1021.9 |
| 20260906204044 | 60 | 113 | 1.7 | 3.5 | 0.00 | 0.00 | 0.00 | 96 | 1021.9 |
| 20260906203019 | 60 | 0.0 | 0.0 | 0.00 | 0.00 | 0.00 | 94 | 1022.0 | |
| 20260906202032 | 60 | 113 | 0.0 | 1.7 | 0.00 | 0.00 | 0.00 | 92 | 1021.9 |
| 20260906201027 | 61 | 113 | 1.7 | 2.6 | 0.00 | 0.00 | 0.00 | 90 | 1022.0 |
| 20260906200028 | 61 | 113 | 0.9 | 1.7 | 0.00 | 0.00 | 0.00 | 89 | 1022.1 |
| 20260906195042 | 61 | 113 | 0.9 | 3.5 | 0.00 | 0.00 | 0.00 | 88 | 1022.1 |
| 20260906194017 | 61 | 113 | 1.7 | 3.5 | 0.00 | 0.00 | 0.00 | 87 | 1022.2 |
| 20260906193030 | 61 | 0.0 | 0.0 | 0.00 | 0.00 | 0.00 | 86 | 1022.2 | |
| 20260906192026 | 61 | 113 | 0.9 | 2.6 | 0.00 | 0.00 | 0.00 | 86 | 1022.3 |
| 20260906191021 | 61 | 0.9 | 2.6 | 0.00 | 0.00 | 0.00 | 86 | 1022.4 | |
| 20260906190016 | 61 | 113 | 0.9 | 2.6 | 0.00 | 0.00 | 0.00 | 86 | 1022.4 |
| 20260906185029 | 61 | 0.0 | 0.0 | 0.00 | 0.00 | 0.00 | 87 | 1022.5 | |
| 20260906184023 | 61 | 113 | 1.7 | 3.5 | 0.00 | 0.00 | 0.00 | 87 | 1022.6 |
| 20260906183019 | 61 | 113 | 2.6 | 3.5 | 0.00 | 0.00 | 0.00 | 86 | 1022.6 |
| 20260906182108 | 61 | 113 | 2.6 | 4.3 | 0.00 | 0.00 | 0.00 | 85 | 1022.6 |
| 20260906181022 | 61 | 113 | 1.7 | 3.5 | 0.00 | 0.00 | 0.00 | 85 | 1022.9 |
| 20260906180017 | 61 | 113 | 2.6 | 4.3 | 0.00 | 0.00 | 0.00 | 85 | 1022.9 |
| 20260906175024 | 61 | 113 | 2.6 | 4.3 | 0.00 | 0.00 | 0.00 | 85 | 1022.9 |
| 20260906174019 | 61 | 113 | 1.7 | 4.3 | 0.00 | 0.00 | 0.00 | 85 | 1022.8 |
| 20260906173020 | 61 | 113 | 2.6 | 4.3 | 0.00 | 0.00 | 0.00 | 85 | 1022.7 |
| 20260906172016 | 61 | 58 | 3.5 | 5.2 | 0.00 | 0.00 | 0.00 | 87 | 1022.6 |
| 20260906171029 | 61 | 45 | 0.9 | 5.2 | 0.00 | 0.00 | 0.00 | 87 | 1022.7 |
| 20260906170025 | 60 | 0.0 | 0.0 | 0.00 | 0.00 | 0.00 | 88 | 1022.6 | |
| 20260906165018 | 61 | 0.0 | 0.0 | 0.00 | 0.00 | 0.00 | 88 | 1022.6 | |
| 20260906164032 | 59 | 0.0 | 0.0 | 0.00 | 0.00 | 0.00 | 91 | 1022.7 | |
| 20260906163027 | 59 | 0.0 | 0.0 | 0.00 | 0.00 | 0.00 | 91 | 1023.1 | |
| 20260906162022 | 59 | 0.0 | 0.0 | 0.00 | 0.00 | 0.00 | 92 | 1022.9 | |
| 20260906161023 | 58 | 0.0 | 0.0 | 0.00 | 0.00 | 0.00 | 93 | 1023.1 | |
| 20260906160017 | 58 | 0.0 | 0.0 | 0.00 | 0.00 | 0.00 | 93 | 1023.1 | |
| 20260906155025 | 59 | 0.0 | 0.0 | 0.00 | 0.00 | 0.00 | 95 | 1023.0 | |
| 20260906154020 | 58 | 0.0 | 0.0 | 0.00 | 0.00 | 0.00 | 97 | 1023.0 | |
| 20260906153021 | 58 | 0.0 | 0.0 | 0.00 | 0.00 | 0.00 | 97 | 1023.3 | |
| 20260906152034 | 58 | 0.0 | 0.0 | 0.00 | 0.00 | 0.00 | 97 | 1023.4 | |
| 20260906151029 | 57 | 0.0 | 0.0 | 0.00 | 0.00 | 0.00 | 98 | 1023.5 | |
| 20260906150024 | 57 | 0.0 | 0.0 | 0.00 | 0.00 | 0.00 | 99 | 1023.6 | |
| 20260906145020 | 56 | 0.0 | 0.0 | 0.00 | 0.00 | 0.00 | 99 | 1023.6 | |
| 20260906144112 | 56 | 0.0 | 0.0 | 0.00 | 0.00 | 0.00 | 99 | 1023.6 | |
| 20260906143026 | 56 | 0.0 | 0.0 | 0.00 | 0.00 | 0.00 | 99 | 1023.6 | |
| 20260906142022 | 55 | 0.0 | 0.0 | 0.00 | 0.00 | 0.00 | 99 | 1023.7 | |
| 20260906141023 | 55 | 0.0 | 0.0 | 0.00 | 0.00 | 0.00 | 99 | 1023.8 | |
| 20260906140017 | 55 | 0.0 | 0.0 | 0.00 | 0.00 | 0.00 | 99 | 1023.7 | |
| 20260906135044 | 55 | 0.0 | 0.0 | 0.00 | 0.00 | 0.00 | 99 | 1023.7 | |
| 20260906134039 | 55 | 0.0 | 0.0 | 0.00 | 0.00 | 0.00 | 99 | 1023.7 | |
| 20260906133020 | 55 | 0.0 | 0.0 | 0.00 | 0.00 | 0.00 | 99 | 1023.9 | |
| 20260906132033 | 55 | 0.0 | 0.0 | 0.00 | 0.00 | 0.00 | 99 | 1024.1 | |
| 20260906131028 | 55 | 0.0 | 0.0 | 0.00 | 0.00 | 0.00 | 99 | 1024.2 | |
| 20260906130023 | 55 | 0.0 | 0.0 | 0.00 | 0.00 | 0.00 | 99 | 1024.1 | |
| 20260906125038 | 54 | 0.0 | 0.0 | 0.00 | 0.00 | 0.00 | 99 | 1024.1 | |
| 20260906124031 | 54 | 0.0 | 0.0 | 0.00 | 0.00 | 0.00 | 99 | 1024.0 | |
| 20260906123025 | 54 | 0.0 | 0.0 | 0.00 | 0.00 | 0.00 | 99 | 1023.7 | |
| 20260906122020 | 54 | 0.0 | 0.0 | 0.00 | 0.00 | 0.00 | 99 | 1024.0 | |
| 20260906121015 | 54 | 0.0 | 0.0 | 0.00 | 0.00 | 0.00 | 99 | 1023.8 | |
| 20260906120037 | 54 | 0.0 | 0.0 | 0.00 | 0.00 | 0.00 | 99 | 1023.7 | |
| 20260906115023 | 54 | 0.0 | 0.0 | 0.00 | 0.00 | 0.00 | 99 | 1023.7 | |
| 20260906114018 | 54 | 0.0 | 0.0 | 0.00 | 0.00 | 0.00 | 99 | 1023.8 | |
| 20260906113019 | 54 | 0.0 | 0.0 | 0.00 | 0.00 | 0.00 | 99 | 1023.9 | |
| 20260906112033 | 54 | 0.0 | 0.0 | 0.00 | 0.00 | 0.00 | 99 | 1024.2 | |
| 20260906111028 | 54 | 0.0 | 0.0 | 0.00 | 0.00 | 0.00 | 99 | 1024.3 | |
| 20260906110042 | 54 | 0.0 | 0.0 | 0.00 | 0.00 | 0.00 | 99 | 1024.5 | |
| 20260906105017 | 54 | 0.0 | 0.0 | 0.00 | 0.00 | 0.00 | 99 | 1024.6 | |
| 20260906104030 | 54 | 0.0 | 0.0 | 0.00 | 0.00 | 0.00 | 99 | 1024.7 | |
| 20260906103025 | 54 | 0.0 | 0.0 | 0.00 | 0.00 | 0.00 | 99 | 1024.7 | |
| 20260906102020 | 54 | 0.0 | 0.0 | 0.00 | 0.00 | 0.00 | 99 | 1024.7 | |
| 20260906101016 | 54 | 0.0 | 0.0 | 0.00 | 0.00 | 0.00 | 99 | 1024.7 | |
| 20260906100017 | 54 | 0.0 | 0.0 | 0.00 | 0.00 | 0.00 | 99 | 1024.7 | |
| 20260906095024 | 54 | 0.0 | 0.0 | 0.00 | 0.00 | 0.00 | 99 | 1024.7 | |
| 20260906094019 | 54 | 0.0 | 0.0 | 0.00 | 0.00 | 0.00 | 99 | 1024.8 | |
| 20260906093019 | 54 | 0.0 | 0.0 | 0.00 | 0.00 | 0.00 | 99 | 1024.9 | |
| 20260906092032 | 54 | 0.0 | 0.0 | 0.00 | 0.00 | 0.00 | 99 | 1024.7 | |
| 20260906091027 | 54 | 0.0 | 0.0 | 0.00 | 0.00 | 0.00 | 99 | 1025.1 | |
| 20260906090023 | 54 | 0.0 | 0.0 | 0.00 | 0.00 | 0.00 | 99 | 1025.2 | |
| 20260906085019 | 54 | 0.0 | 0.0 | 0.00 | 0.00 | 0.00 | 99 | 1025.3 | |
| 20260906084032 | 54 | 0.0 | 0.0 | 0.00 | 0.00 | 0.00 | 99 | 1025.5 | |
| 20260906083027 | 54 | 0.0 | 0.0 | 0.00 | 0.00 | 0.00 | 99 | 1025.3 | |
| 20260906082022 | 54 | 0.0 | 0.0 | 0.00 | 0.00 | 0.00 | 99 | 1025.4 | |
| 20260906081024 | 54 | 0.0 | 0.0 | 0.00 | 0.00 | 0.00 | 99 | 1025.4 | |
| 20260906080018 | 54 | 0.0 | 0.0 | 0.00 | 0.00 | 0.00 | 99 | 1025.4 | |
| 20260906075025 | 54 | 0.0 | 0.0 | 0.00 | 0.00 | 0.00 | 99 | 1025.4 | |
| 20260906074020 | 54 | 0.0 | 0.0 | 0.00 | 0.00 | 0.00 | 99 | 1025.4 | |
| 20260906073021 | 54 | 0.0 | 0.0 | 0.00 | 0.00 | 0.00 | 99 | 1025.5 | |
| 20260906072016 | 54 | 0.0 | 0.0 | 0.00 | 0.00 | 0.00 | 99 | 1025.7 | |
| 20260906071029 | 54 | 0.0 | 0.0 | 0.00 | 0.00 | 0.00 | 99 | 1025.7 | |
| 20260906070024 | 54 | 0.0 | 0.0 | 0.00 | 0.00 | 0.00 | 99 | 1025.7 | |
| 20260906065019 | 54 | 0.0 | 0.0 | 0.00 | 0.00 | 0.00 | 99 | 1025.7 | |
| 20260906064032 | 54 | 0.0 | 0.0 | 0.00 | 0.00 | 0.00 | 99 | 1025.7 | |
| 20260906063027 | 54 | 0.0 | 0.0 | 0.00 | 0.00 | 0.00 | 99 | 1025.7 | |
| 20260906062028 | 54 | 0.0 | 0.0 | 0.00 | 0.00 | 0.00 | 99 | 1025.7 | |
| 20260906061029 | 54 | 0.0 | 0.0 | 0.00 | 0.00 | 0.00 | 98 | 1025.7 | |
| 20260906060030 | 54 | 0.0 | 0.0 | 0.00 | 0.00 | 0.00 | 98 | 1025.7 | |
| 20260906055025 | 54 | 0.0 | 0.0 | 0.00 | 0.00 | 0.00 | 98 | 1025.7 | |
| 20260906054020 | 54 | 0.0 | 0.0 | 0.00 | 0.00 | 0.00 | 98 | 1025.7 | |
| 20260906053033 | 54 | 0.0 | 0.0 | 0.00 | 0.00 | 0.00 | 97 | 1025.8 | |
| 20260906052028 | 54 | 0.0 | 0.0 | 0.00 | 0.00 | 0.00 | 97 | 1025.7 | |
| 20260906051023 | 54 | 0.0 | 0.0 | 0.00 | 0.00 | 0.00 | 97 | 1025.7 | |
| 20260906050018 | 54 | 0.0 | 0.0 | 0.00 | 0.00 | 0.00 | 97 | 1025.6 | |
| 20260906045031 | 54 | 0.0 | 0.0 | 0.00 | 0.00 | 0.00 | 96 | 1025.6 | |
| 20260906044026 | 54 | 0.0 | 0.0 | 0.00 | 0.00 | 0.00 | 96 | 1025.5 | |
| 20260906043020 | 55 | 0.0 | 0.0 | 0.00 | 0.00 | 0.00 | 96 | 1025.6 | |
| 20260906042015 | 55 | 45 | 0.9 | 3.5 | 0.00 | 0.00 | 0.00 | 96 | 1025.5 |
| 20260906041024 | 55 | 0.0 | 0.0 | 0.00 | 0.00 | 0.00 | 95 | 1025.6 | |
| 20260906040038 | 55 | 0.0 | 0.0 | 0.00 | 0.00 | 0.00 | 95 | 1025.6 | |
| 20260906035026 | 55 | 0.0 | 0.0 | 0.00 | 0.00 | 0.00 | 95 | 1025.6 | |
| 20260906034020 | 55 | 0.0 | 0.0 | 0.00 | 0.00 | 0.00 | 95 | 1025.6 | |
| 20260906033021 | 55 | 0.0 | 0.0 | 0.00 | 0.00 | 0.00 | 95 | 1025.6 | |
| 20260906032017 | 55 | 0.0 | 0.0 | 0.00 | 0.00 | 0.00 | 94 | 1025.6 | |
| 20260906031030 | 55 | 0.0 | 0.0 | 0.00 | 0.00 | 0.00 | 94 | 1025.7 | |
| 20260906030045 | 55 | 0.0 | 0.0 | 0.00 | 0.00 | 0.00 | 94 | 1025.7 | |
| 20260906025019 | 55 | 0.0 | 0.0 | 0.00 | 0.00 | 0.00 | 94 | 1025.7 | |
| 20260906024032 | 55 | 0.0 | 0.0 | 0.00 | 0.00 | 0.00 | 93 | 1025.6 | |
| 20260906023048 | 55 | 0.0 | 0.0 | 0.00 | 0.00 | 0.00 | 93 | 1025.4 | |
| 20260906022043 | 55 | 0.0 | 0.0 | 0.00 | 0.00 | 0.00 | 93 | 1025.4 | |
| 20260906021017 | 56 | 0.0 | 0.0 | 0.00 | 0.00 | 0.00 | 92 | 1025.4 | |
| 20260906020018 | 56 | 0.0 | 0.0 | 0.00 | 0.00 | 0.00 | 92 | 1025.3 | |
| 20260906015025 | 56 | 0.0 | 0.0 | 0.00 | 0.00 | 0.00 | 92 | 1025.2 | |
| 20260906014020 | 56 | 0.0 | 0.0 | 0.00 | 0.00 | 0.00 | 91 | 1025.2 | |
| 20260906013142 | 56 | 0.0 | 0.0 | 0.00 | 0.00 | 0.00 | 91 | 1025.2 | |
| 20260906012017 | 56 | 0.0 | 0.0 | 0.00 | 0.00 | 0.00 | 90 | 1025.1 | |
| 20260906011029 | 57 | 0.0 | 0.0 | 0.00 | 0.00 | 0.00 | 90 | 1025.2 | |
| 20260906010024 | 57 | 0.0 | 0.0 | 0.00 | 0.00 | 0.00 | 89 | 1025.1 | |
| 20260906005020 | 57 | 0.0 | 0.0 | 0.00 | 0.00 | 0.00 | 89 | 1025.1 | |
| 20260906004033 | 57 | 0.0 | 0.0 | 0.00 | 0.00 | 0.00 | 88 | 1025.1 | |
| 20260906003028 | 58 | 0.0 | 0.0 | 0.00 | 0.00 | 0.00 | 87 | 1025.1 | |
| 20260906002023 | 58 | 0.0 | 0.0 | 0.00 | 0.00 | 0.00 | 87 | 1025.0 | |
| 20260906001018 | 58 | 0.0 | 0.0 | 0.00 | 0.00 | 0.00 | 86 | 1025.1 | |
| 20260906000019 | 59 | 0.0 | 0.0 | 0.00 | 0.00 | 0.00 | 86 | 1025.0 | |
| 20260905235028 | 59 | 0.0 | 0.0 | 0.00 | 0.00 | 0.00 | 85 | 1025.0 | |
| 20260905234021 | 59 | 0.0 | 0.0 | 0.00 | 0.00 | 0.00 | 84 | 1025.0 | |
| 20260905233016 | 60 | 0.0 | 0.0 | 0.00 | 0.00 | 0.00 | 84 | 1025.0 | |
| 20260905232037 | 60 | 0.0 | 0.0 | 0.00 | 0.00 | 0.00 | 83 | 1025.1 |